IT9GFD-13 Weather Reports


Display with metric or nautical units.
time (UTC)temp
F
wind
direction
speed
MPH
gust
MPH
rain 1hr
in
rain 24hr
in
rain mn
in
humidity
%
barometer
mb
20260504033017 58 0.0 0.0 0.00 0.00 0.00 74 1021.3
20260504032017 58 293 2.0 4.0 0.00 0.00 0.00 71 1021.3
20260504031017 57 293 2.0 3.0 0.00 0.00 0.00 69 1021.3
20260504030017 57 315 2.0 4.0 0.00 0.00 0.00 69 1021.3
20260504025017 57 293 2.0 5.0 0.00 0.00 0.00 69 1021.3
20260504024018 57 293 3.0 4.0 0.00 0.00 0.00 70 1021.4
20260504023017 58 293 1.0 4.0 0.00 0.00 0.00 70 1021.4
20260504022017 58 270 1.0 3.0 0.00 0.00 0.00 69 1021.5
20260504021017 57 315 1.0 3.0 0.00 0.00 0.00 71 1021.6
20260504020017 57 0.0 3.0 0.00 0.00 0.00 71 1021.5
20260504015017 57 293 1.0 2.0 0.00 0.00 0.00 71 1021.5
20260504014017 58 293 2.0 4.0 0.00 0.00 0.00 70 1021.5
20260504013017 58 293 1.0 2.0 0.00 0.00 0.00 70 1021.6
20260504012037 58 270 2.0 3.0 0.00 0.00 0.00 70 1021.5
20260504011017 58 270 1.0 3.0 0.00 0.00 0.00 71 1021.4
20260504010017 58 293 1.0 3.0 0.00 0.00 0.00 71 1021.6
20260504005016 59 293 1.0 3.0 0.00 0.00 0.00 71 1021.6
20260504004117 59 0.0 0.0 0.00 0.00 0.00 71 1021.6
20260504003017 59 0.0 0.0 0.00 0.00 0.00 73 1021.5
20260504002017 59 0.0 0.0 0.00 0.00 0.00 74 1021.6
20260504001016 59 0.0 0.0 0.00 0.00 0.00 76 1021.5
20260504000037 59 315 1.0 4.0 0.00 0.00 0.00 78 1021.6
20260503235017 59 0.0 4.0 0.00 0.00 0.00 79 1021.7
20260503234016 59 0.0 0.0 0.00 0.00 0.00 79 1021.8
20260503233017 59 0.0 0.0 0.00 0.00 0.00 79 1022.0
20260503232017 60 0.0 1.0 0.00 0.00 0.00 80 1022.0
20260503231017 59 0.0 0.0 0.00 0.00 0.00 81 1022.0
20260503230017 60 0.0 2.0 0.00 0.00 0.00 81 1022.2
20260503225017 60 0.0 0.0 0.00 0.00 0.00 82 1022.3
20260503224017 60 248 2.0 7.0 0.00 0.00 0.00 82 1022.3
20260503223016 60 293 2.0 6.0 0.00 0.00 0.00 83 1022.3
20260503222057 60 0.0 0.0 0.00 0.00 0.00 82 1022.3
20260503221017 60 0.0 0.0 0.00 0.00 0.00 82 1022.3
20260503220129 60 293 2.0 3.0 0.00 0.00 0.00 82 1022.3
20260503215016 60 0.0 0.0 0.00 0.00 0.00 82 1022.4
20260503214016 61 0.0 1.0 0.00 0.00 0.00 81 1022.5
20260503213017 61 270 1.0 4.0 0.00 0.00 0.00 81 1022.4
20260503212016 61 270 3.0 6.0 0.00 0.00 0.00 81 1022.5
20260503211016 61 270 1.0 4.0 0.00 0.00 0.00 81 1022.6
20260503210017 61 270 3.0 8.0 0.00 0.00 0.00 80 1022.6
20260503205016 61 270 3.0 7.0 0.00 0.00 0.00 81 1022.6
20260503204016 61 270 2.0 6.0 0.00 0.00 0.00 81 1022.5
20260503203016 61 293 2.0 4.0 0.00 0.00 0.00 81 1022.4
20260503202016 61 315 2.0 4.0 0.00 0.00 0.00 80 1022.4
20260503201016 61 293 2.0 4.0 0.00 0.00 0.00 79 1022.5
20260503200016 61 270 1.0 3.0 0.00 0.00 0.00 79 1022.4
20260503195016 61 270 3.0 6.0 0.00 0.00 0.00 79 1022.4
20260503194036 61 293 2.0 4.0 0.00 0.00 0.00 78 1022.5
20260503193037 61 270 3.0 7.0 0.00 0.00 0.00 78 1022.5
20260503192016 61 270 4.0 9.0 0.00 0.00 0.00 77 1022.5
20260503191016 61 270 2.0 7.0 0.00 0.00 0.00 76 1022.3
20260503190016 61 270 2.0 4.0 0.00 0.00 0.00 76 1022.3
20260503185016 61 270 3.0 6.0 0.00 0.00 0.00 76 1022.3
20260503184056 62 270 3.0 7.0 0.00 0.00 0.00 76 1022.1
20260503183016 62 270 3.0 8.0 0.00 0.00 0.00 76 1021.8
20260503182016 62 270 3.0 6.0 0.00 0.00 0.00 74 1021.5
20260503181036 62 270 3.0 6.0 0.00 0.00 0.00 73 1021.5
20260503180016 63 293 2.0 6.0 0.00 0.00 0.00 72 1021.3
20260503175016 63 315 3.0 8.0 0.00 0.00 0.00 72 1021.3
20260503174036 63 293 2.0 4.0 0.00 0.00 0.00 72 1021.2
20260503173056 63 270 3.0 7.0 0.00 0.00 0.00 71 1021.3
20260503172016 63 293 5.0 10.0 0.00 0.00 0.00 70 1021.0
20260503171036 63 270 4.0 8.0 0.00 0.00 0.00 72 1021.0
20260503131015 66 270 8.0 18.0 0.00 0.00 0.00 67 1021.5
20260503081017 65 293 9.0 15.0 0.00 0.00 0.00 63 1022.4
20260503072017 64 315 10.0 17.0 0.00 0.00 0.00 62 1022.3
20260503071022 63 315 10.0 21.0 0.00 0.00 0.00 62 1022.2
20260503055017 62 293 9.0 16.0 0.00 0.00 0.00 64 1022.0
20260503054017 62 315 10.0 15.0 0.00 0.00 0.00 65 1022.0
20260503053017 61 315 8.0 16.0 0.00 0.00 0.00 65 1022.0
20260503052017 61 293 5.0 12.0 0.00 0.00 0.00 66 1021.9
20260503051017 61 293 6.0 12.0 0.00 0.00 0.00 66 1022.0
20260503050017 60 315 2.0 6.0 0.00 0.00 0.00 68 1022.0
20260503045037 59 0.0 4.0 0.00 0.00 0.00 70 1022.0
20260503044017 59 0.0 0.0 0.00 0.00 0.00 70 1022.0
20260503043017 59 0.0 0.0 0.00 0.00 0.00 69 1021.9
20260503042017 59 338 1.0 4.0 0.00 0.00 0.00 69 1021.8
20260503041017 59 0.0 2.0 0.00 0.00 0.00 69 1021.7
20260503040037 59 135 1.0 4.0 0.00 0.00 0.00 69 1021.6
20260503035017 59 90 1.0 4.0 0.00 0.00 0.00 70 1021.6
20260503034021 59 0.0 2.0 0.00 0.00 0.00 70 1021.6